Home   Weather   Temuco   Past weeks

Flag for Chile Past Weather in Temuco, Chile — Yesterday and Last 2 Weeks

Now
52 °F

Clear.


Feels Like: 50 °F
Forecast: 44 / 68 °F
Wind: 6 mph from Southwest

Location: Concepcion Airport

Current Time: Sep 27, 2016 at 4:07:15 AM

Latest Report: Sep 27, 2016 at 3:00 AM


Visibility: 10 mi

Pressure: 30.01 "Hg

Humidity: 94%

Dew Point: 50 °F

Location of TemucoLocation

Past Weather in Temuco — Graph

°F

Temuco Temperature Yesterday

Maximum temperature yesterday: 61 °F (at 12:00 PM)
Minimum temperature yesterday: 45 °F (at 12:00 AM)
Average temperature yesterday: 54 °F

High & Low Weather Summary for the Past Weeks

 TemperatureHumidityPressure
High79 °F (Sep 22, 5:00 PM)100% (Sep 12, 10:00 AM)30.33 "Hg (Sep 12, 10:00 AM)
Low41 °F (Sep 14, 6:00 AM)19% (Sep 23, 6:00 AM)29.92 "Hg (Sep 23, 1:00 AM)
Average55 °F80%30.07 "Hg
* Reported Sep 12 3:00 AM — Sep 27 3:00 AM, Temuco, Weather by CustomWeather, © 2016

Note: Actual official high and low records may vary slightly from our data, if they occured in-between our weather recording intervals... More about our weather records

Advertising

Temuco Weather History for the Previous 24 Hours

Scroll right to see more
 ConditionsComfort  
Time TempWeatherWind HumidityBarometerVisibility
3:00 AM
Tue, Sep 27
52 °FClear.6 mph94%30.01 "Hg10 mi
2:00 AM52 °FClear.5 mph94%30.01 "Hg10 mi
1:00 AM52 °FClear.3 mph94%30.04 "Hg10 mi
12:00 AM52 °FClear.5 mph94%30.04 "Hg10 mi
11:00 PM
Mon, Sep 26
54 °FClear.5 mph88%30.04 "Hg10 mi
10:00 PM55 °FClear.5 mph82%30.04 "Hg10 mi
9:00 PM57 °FClear.6 mph77%30.01 "Hg10 mi
8:00 PM59 °FClear.7 mph72%30.01 "Hg10 mi
7:00 PM59 °FSunny.10 mph72%30.01 "Hg10 mi
6:00 PM57 °FSunny.14 mph82%30.01 "Hg10 mi
5:00 PM59 °FSunny.10 mph77%30.01 "Hg10 mi
4:00 PM59 °FClear.12 mph77%30.01 "Hg5 mi
3:00 PM59 °FBroken clouds.16 mph77%30.04 "HgN/A
2:00 PM59 °FPassing clouds.15 mph77%30.04 "HgN/A
1:00 PM61 °FPassing clouds.10 mph72%30.04 "HgN/A
12:00 PM61 °FBroken clouds.5 mph68%30.07 "HgN/A
11:00 AM57 °FPartly sunny.5 mph77%30.07 "HgN/A
10:00 AM54 °FPartly sunny.5 mph82%30.07 "Hg5 mi
9:00 AM50 °FBroken clouds.3 mph88%30.07 "Hg4 mi
8:00 AM48 °FBroken clouds.1 mph94%30.07 "Hg4 mi
7:00 AM48 °FOvercast.5 mph94%30.07 "HgN/A
6:00 AM48 °FOvercast.6 mph94%30.07 "HgN/A
5:00 AM48 °FPassing clouds.2 mph87%30.04 "HgN/A
4:00 AM50 °FOvercast.1 mph88%30.07 "HgN/A
Weather by CustomWeather, © 2016

See weather overviewHow to use our weather pages